This is the latest recevied weather packets stored in our database for station/object KC3ELT-10. If no packets are shown the sender has not sent any weather packets the latest 10 day(s).
| Time | Temp. | Humidity | Pressure | Rain* | Wind** | Luminosity | Snow |
|---|---|---|---|---|---|---|---|
| 1777994279 | 22.78° C | 51% | 1004.3 hPa | 0 mm | 1.34 m/s, 247° | - | - |
| 1777993979 | 22.22° C | 51% | 1004.4 hPa | 0 mm | 1.34 m/s, 185° | - | - |
| 1777993679 | 22.22° C | 51% | 1004.4 hPa | 0 mm | 0.45 m/s, 261° | - | - |
| 1777993379 | 21.67° C | 53% | 1004.4 hPa | 0 mm | 0.89 m/s, 221° | - | - |
| 1777993079 | 21.67° C | 51% | 1004.5 hPa | 0 mm | 0.45 m/s, 216° | - | - |
| 1777992779 | 21.11° C | 54% | 1004.5 hPa | 0 mm | 0.89 m/s, 224° | - | - |
| 1777992479 | 21.11° C | 53% | 1004.5 hPa | 0 mm | 4.92 m/s, 252° | - | - |
| 1777992179 | 21.11° C | 54% | 1004.5 hPa | 0 mm | 0.89 m/s, 200° | - | - |
| 1777991879 | 20.56° C | 55% | 1004.5 hPa | 0 mm | 1.79 m/s, 276° | - | - |
| 1777991579 | 20.56° C | 55% | 1004.5 hPa | 0 mm | 2.24 m/s, 236° | - | - |
| 1777991279 | 20.56° C | 57% | 1004.7 hPa | 0 mm | 0 m/s | - | - |
| 1777990979 | 20.56° C | 57% | 1004.7 hPa | 0 mm | 0.45 m/s, 190° | - | - |
| 1777990679 | 20° C | 58% | 1004.7 hPa | 0 mm | 0.89 m/s, 154° | - | - |
| 1777990379 | 20° C | 60% | 1005.1 hPa | 0 mm | 1.34 m/s, 167° | - | - |
| 1777990079 | 19.44° C | 58% | 1005.1 hPa | 0 mm | 1.79 m/s, 225° | - | - |
| 1777989779 | 19.44° C | 59% | 1005.1 hPa | 0 mm | 1.34 m/s, 231° | - | - |
| 1777989479 | 19.44° C | 60% | 1005.1 hPa | 0 mm | 3.13 m/s, 247° | - | - |
| 1777989179 | 18.89° C | 59% | 1005.1 hPa | 0 mm | 1.79 m/s, 257° | - | - |
| 1777988879 | 18.33° C | 60% | 1005.1 hPa | 0 mm | 0.89 m/s, 243° | - | - |
| 1777988579 | 18.33° C | 61% | 1005.2 hPa | 0 mm | 0.89 m/s, 209° | - | - |
| 1777988279 | 17.78° C | 61% | 1005.2 hPa | 0 mm | 0.89 m/s, 192° | - | - |
| 1777987979 | 17.78° C | 61% | 1005.2 hPa | 0 mm | 0.89 m/s, 227° | - | - |
| 1777987679 | 17.78° C | 61% | 1005.2 hPa | 0 mm | 1.34 m/s, 256° | - | - |
| 1777987379 | 17.78° C | 62% | 1005.2 hPa | 0 mm | 1.34 m/s, 265° | - | - |
| 1777987079 | 17.22° C | 63% | 1005.2 hPa | 0 mm | 0.89 m/s, 184° | - | - |
* Rain latest hour (hover to see other rain measurements)
** Current wind speed in m/s (hover to see current wind gust speed)